Tracking 18852 objects as of 24-Nov-2017
HD Live streaming from Space Station
objects crossing your sky now

COSMOS 968

Track COSMOS 968 now!
10-day predictions
COSMOS 968 is classified as:


NORAD ID: 10520
Int'l Code: 1977-119A
Perigee: 766.6 km
Apogee: 791.1 km
Inclination: 74.0 °
Period: 100.3 minutes
Semi major axis: 7149 km
RCS: 2.1356 m2 (large)
Launch date: December 16, 1977
Source: Commonwealth of Independent States (former USSR) (CIS)
Launch site: PLESETSK MISSILE AND SPACE COMPLEX (PKMTR)
aabbcc
Your satellite tracking list
Your tracking list is empty




NASA's NSSDC Master Catalog

Two Line Element Set (TLE):
1 10520U 77119A   17327.61779840 +.00000023 +00000-0 +16897-4 0  9995
2 10520 074.0284 125.1589 0017159 034.4649 325.7613 14.36014017089763
Source of the keplerian elements: AFSPC